カタログに戻る

STARLINK-6313

運用中通信VLEO
NORAD 56519·PAYLOAD·🇺🇸 United States

打ち上げ May 14, 2023 から Cape Canaveral Space Force Station

Loading…

次のパス (今後24時間)

TLE

最新Source: CelesTrak SupGP

元期: Sep 15, 2026, 02:03 UTC

1 56519C 23065S   26258.08590278 -.00024760  00000+0 -89702-3 0  2581
2 56519  43.0036 223.0500 0001326 265.4598  80.7992 15.27583147    16

AllMySatでSTARLINK-6313をリアルタイム追跡

Download on the App Store